Weather History for Asheville, NC

Change the Weather History Date:

Wednesday, September 10, 2014

  Actual Average Record
Temperature  
Mean Temperature 72 °F 68 °F  
Max Temperature 77 °F 79 °F 91 °F (1897)
Min Temperature 66 °F 58 °F 40 °F (1998)
Degree Days  
Heating Degree Days 0 1  
Month to date heating degree days 0 2  
Since 1 July heating degree days 2 4  
Cooling Degree Days 7 4  
Month to date cooling degree days 93 50  
Year to date cooling degree days 845 807  
Growing Degree Days 22 (Base 50)    
Moisture  
Dew Point 64 °F    
Average Humidity 79    
Maximum Humidity 93    
Minimum Humidity 64    
Precipitation  
Precipitation 0.00 in 0.13 in 2.06 in (1888)
Month to date precipitation 4.81 1.34  
Year to date precipitation 35.59 32.95  
Snow  
Snow 0.00 in 0.00 in 0.00 in ()
Month to date snowfall 0.0 0.0  
Since 1 July snowfall 0.0 0.0  
Since 1 September snowfall 0.0 0.0  
Snow Depth 0.00 in    
Sea Level Pressure  
Sea Level Pressure 30.10 in    
Wind  
Wind Speed 5 mph (SSE)    
Max Wind Speed 12 mph    
Max Gust Speed 16 mph    
Visibility 10 miles    
Events      
T = Trace of Precipitation, MM = Missing Value Source: NWS Daily Summary

Daily Weather History Graph

Daily Weather History Graph

Search for Another Location

Airport:

Trip Planner

Search our weather history database for the weather conditions in past years. The results will help you decide how hot, cold, wet, or windy it might be!

Date:

Astronomy

Sep. 10, 2014 Rise Set
Actual Time 7:09 AM EDT 7:44 PM EDT
Civil Twilight 6:43 AM EDT 8:10 PM EDT
Nautical Twilight 6:13 AM EDT 8:40 PM EDT
Astronomical Twilight 5:42 AM EDT 9:10 PM EDT
Moon 8:48 PM EDT (9/10) 8:50 AM EDT (9/10)
Length of Visible Light 13h 26m
Length of Day
12h 35m
Waning Gibbous, 96% of the Moon is Illuminated
Sep 10
Waning Gibbous
Sep 15
Last Quarter
Sep 24
New
Oct 1
First Quarter
Oct 8
Full

Hourly Weather History & Observations

Time (EDT) Temp. Dew Point Humidity Pressure Visibility Wind Dir Wind Speed Gust Speed Precip Events Conditions
12:54 AM 68.0 °F 64.9 °F 90% 30.10 in 10.0 mi SE 3.5 mph - 0.00 in   Overcast
1:54 AM 68.0 °F 64.0 °F 87% 30.08 in 10.0 mi SE 4.6 mph - N/A   Overcast
2:46 AM 68.0 °F 64.9 °F 90% 30.16 in 10.0 mi ESE 3.5 mph - N/A   Overcast
2:54 AM 68.0 °F 64.0 °F 87% 30.08 in 10.0 mi Calm Calm - N/A   Overcast
3:06 AM 68.0 °F 64.0 °F 87% 30.16 in 10.0 mi South 3.5 mph - N/A   Overcast
3:54 AM 66.9 °F 64.0 °F 90% 30.08 in 10.0 mi SSW 3.5 mph - N/A   Overcast
4:42 AM 66.9 °F 64.0 °F 90% 30.15 in 10.0 mi South 3.5 mph - N/A   Overcast
4:54 AM 66.9 °F 64.0 °F 90% 30.08 in 10.0 mi Calm Calm - N/A   Overcast
5:12 AM 66.9 °F 64.0 °F 90% 30.15 in 10.0 mi SSE 3.5 mph - N/A   Overcast
5:54 AM 66.9 °F 64.0 °F 90% 30.09 in 10.0 mi Calm Calm - N/A   Overcast
6:54 AM 66.0 °F 64.0 °F 93% 30.09 in 10.0 mi South 5.8 mph - N/A   Overcast
7:13 AM 66.9 °F 64.0 °F 90% 30.16 in 10.0 mi SSE 4.6 mph - N/A   Overcast
7:24 AM 66.0 °F 64.0 °F 93% 30.17 in 10.0 mi South 3.5 mph - N/A   Overcast
7:54 AM 66.0 °F 64.0 °F 93% 30.11 in 10.0 mi SSE 3.5 mph - N/A   Overcast
8:54 AM 66.9 °F 63.0 °F 87% 30.12 in 10.0 mi South 4.6 mph - N/A   Overcast
9:06 AM 68.0 °F 63.0 °F 84% 30.19 in 10.0 mi South 5.8 mph - N/A   Overcast
9:54 AM 68.0 °F 63.0 °F 84% 30.14 in 10.0 mi Variable 4.6 mph - N/A   Overcast
10:54 AM 69.1 °F 63.0 °F 81% 30.14 in 10.0 mi South 6.9 mph - N/A   Overcast
11:20 AM 70.0 °F 63.0 °F 78% 30.21 in 10.0 mi Variable 3.5 mph - N/A   Overcast
11:54 AM 70.0 °F 63.0 °F 78% 30.14 in 10.0 mi South 4.6 mph - N/A   Overcast
12:11 PM 71.1 °F 63.0 °F 75% 30.19 in 10.0 mi SSE 6.9 mph - N/A   Overcast
12:54 PM 72.0 °F 62.1 °F 71% 30.12 in 10.0 mi SSE 5.8 mph - N/A   Overcast
1:54 PM 73.0 °F 62.1 °F 68% 30.10 in 10.0 mi SSE 8.1 mph - N/A   Overcast
2:54 PM 75.9 °F 63.0 °F 64% 30.07 in 10.0 mi SSE 6.9 mph - N/A   Scattered Clouds
3:54 PM 75.9 °F 64.0 °F 67% 30.05 in 10.0 mi Variable 4.6 mph - N/A   Overcast
4:54 PM 75.0 °F 63.0 °F 66% 30.04 in 10.0 mi SSE 6.9 mph - N/A   Scattered Clouds
5:54 PM 75.0 °F 64.0 °F 69% 30.04 in 10.0 mi SSE 5.8 mph - N/A   Mostly Cloudy
6:42 PM 73.0 °F 64.9 °F 76% 30.11 in 10.0 mi ESE 6.9 mph - N/A   Mostly Cloudy
6:54 PM 73.0 °F 64.9 °F 76% 30.04 in 10.0 mi SE 5.8 mph - N/A   Overcast
7:18 PM 72.0 °F 64.9 °F 78% 30.09 in 10.0 mi SE 5.8 mph - N/A   Scattered Clouds
7:54 PM 71.1 °F 64.9 °F 81% 30.04 in 10.0 mi SSE 4.6 mph - N/A   Mostly Cloudy
8:54 PM 70.0 °F 64.9 °F 84% 30.04 in 10.0 mi SSE 6.9 mph - N/A   Scattered Clouds
9:54 PM 68.0 °F 64.9 °F 90% 30.06 in 10.0 mi SSE 6.9 mph - N/A   Clear
10:54 PM 68.0 °F 64.9 °F 90% 30.05 in 10.0 mi South 4.6 mph - N/A   Overcast
11:35 PM 69.1 °F 64.0 °F 84% 30.12 in 10.0 mi SSE 3.5 mph - N/A   Overcast
11:54 PM 69.1 °F 64.0 °F 84% 30.05 in 10.0 mi SSE 5.8 mph - N/A   Overcast